| time (UTC) | temp F | wind direction | speed knots | gust knots | rain 1hr in | rain 24hr in | rain mn in | humidity % | barometer mb |
| 20260503072520 | 59 | 99 | 0.0 | 1.7 | 0.00 | 0.29 | 0.01 | 80 | 1013.1 |
| 20260503072026 | 59 | 79 | 0.9 | 1.7 | 0.00 | 0.29 | 0.01 | 80 | 1013.1 |
| 20260503071020 | 58 | 122 | 0.0 | 1.7 | 0.00 | 0.29 | 0.01 | 80 | 1013.1 |
| 20260503070600 | 58 | 122 | 0.9 | 1.7 | 0.00 | 0.29 | 0.01 | 80 | 1013.1 |
| 20260503055031 | 56 | 122 | 1.7 | 2.6 | 0.01 | 0.29 | 0.01 | 80 | 1012.9 |
| 20260503054028 | 55 | 122 | 0.0 | 2.6 | 0.00 | 0.28 | 0.00 | 80 | 1012.8 |
| 20260503053537 | 55 | 136 | 0.9 | 2.6 | 0.00 | 0.28 | 0.00 | 80 | 1012.8 |
| 20260503053024 | 55 | 213 | 0.0 | 1.7 | 0.00 | 0.28 | 0.00 | 80 | 1012.8 |
| 20260503052533 | 55 | 213 | 0.0 | 0.9 | 0.00 | 0.28 | 0.00 | 80 | 1012.8 |
| 20260503051034 | 56 | 213 | 0.9 | 2.6 | 0.00 | 0.28 | 0.00 | 80 | 1012.8 |
| 20260503050556 | 55 | 213 | 1.7 | 2.6 | 0.00 | 0.28 | 0.00 | 80 | 1012.8 |
| 20260503050039 | 55 | 213 | 0.9 | 2.6 | 0.00 | 0.28 | 0.00 | 80 | 1012.8 |
| 20260503045527 | 55 | 214 | 0.0 | 4.3 | 0.00 | 0.28 | 0.00 | 80 | 1012.8 |
| 20260503045037 | 55 | 213 | 2.6 | 4.3 | 0.00 | 0.28 | 0.00 | 80 | 1012.8 |
| 20260503044526 | 55 | 221 | 2.6 | 3.5 | 0.00 | 0.28 | 0.00 | 80 | 1012.8 |
| 20260503044033 | 55 | 214 | 1.7 | 2.6 | 0.00 | 0.28 | 0.00 | 80 | 1012.7 |
| 20260503043521 | 55 | 214 | 0.9 | 2.6 | 0.00 | 0.28 | 0.00 | 80 | 1012.7 |
| 20260503043024 | 55 | 214 | 1.7 | 2.6 | 0.00 | 0.28 | 0.00 | 80 | 1012.7 |
| 20260503042533 | 55 | 214 | 1.7 | 2.6 | 0.00 | 0.28 | 0.00 | 80 | 1012.8 |
| 20260503042037 | 55 | 214 | 1.7 | 2.6 | 0.00 | 0.28 | 0.00 | 80 | 1012.8 |
| 20260503041525 | 55 | 214 | 0.0 | 2.6 | 0.00 | 0.28 | 0.00 | 80 | 1012.8 |
| 20260503041032 | 55 | 214 | 0.9 | 2.6 | 0.00 | 0.28 | 0.00 | 80 | 1012.8 |
| 20260503040554 | 55 | 214 | 0.0 | 4.3 | 0.00 | 0.28 | 0.00 | 80 | 1012.8 |
| 20260503035528 | 55 | 193 | 2.6 | 3.5 | 0.00 | 0.28 | 0.00 | 80 | 1013.0 |
| 20260503035034 | 55 | 193 | 1.7 | 3.5 | 0.00 | 0.28 | 0.00 | 80 | 1013.0 |
| 20260503034523 | 55 | 193 | 1.7 | 3.5 | 0.00 | 0.28 | 0.00 | 80 | 1013.0 |
| 20260503034030 | 55 | 193 | 1.7 | 3.5 | 0.00 | 0.28 | 0.00 | 80 | 1013.1 |
| 20260503033519 | 55 | 193 | 1.7 | 1.7 | 0.00 | 0.28 | 0.00 | 80 | 1013.1 |
| 20260503033024 | 55 | 192 | 0.0 | 0.0 | 0.00 | 0.28 | 0.00 | 80 | 1013.1 |
| 20260503032533 | 55 | 193 | 0.0 | 0.0 | 0.00 | 0.28 | 0.00 | 80 | 1013.1 |
| 20260503032039 | 55 | 193 | 0.0 | 0.0 | 0.00 | 0.28 | 0.00 | 80 | 1013.1 |
| 20260503031526 | 55 | 193 | 0.0 | 0.9 | 0.00 | 0.28 | 0.00 | 80 | 1013.1 |
| 20260503031036 | 55 | 193 | 0.0 | 0.9 | 0.00 | 0.28 | 0.00 | 80 | 1013.1 |
| 20260503030544 | 55 | 193 | 0.0 | 0.9 | 0.00 | 0.28 | 0.00 | 80 | 1013.1 |
| 20260503025533 | 56 | 193 | 0.0 | 1.7 | 0.00 | 0.28 | 0.00 | 80 | 1013.2 |
| 20260503024527 | 56 | 193 | 0.9 | 1.7 | 0.00 | 0.28 | 0.00 | 80 | 1013.2 |
| 20260503024033 | 56 | 191 | 0.0 | 1.7 | 0.00 | 0.28 | 0.00 | 80 | 1013.2 |
| 20260503023522 | 56 | 193 | 0.9 | 1.7 | 0.00 | 0.28 | 0.00 | 80 | 1013.2 |
| 20260503023027 | 56 | 193 | 0.0 | 0.0 | 0.00 | 0.28 | 0.00 | 80 | 1013.2 |
| 20260503022536 | 56 | 193 | 0.0 | 0.0 | 0.00 | 0.28 | 0.00 | 80 | 1013.3 |
| 20260503022022 | 56 | 193 | 0.0 | 0.0 | 0.00 | 0.28 | 0.00 | 80 | 1013.3 |
| 20260503021531 | 56 | 193 | 0.0 | 0.9 | 0.00 | 0.28 | 0.00 | 80 | 1013.3 |
| 20260503021037 | 56 | 193 | 0.0 | 0.9 | 0.00 | 0.28 | 0.00 | 80 | 1013.3 |
| 20260503020543 | 56 | 193 | 0.0 | 0.0 | 0.00 | 0.28 | 0.00 | 80 | 1013.3 |
| 20260503015536 | 57 | 193 | 0.0 | 2.6 | 0.00 | 0.28 | 0.00 | 80 | 1013.6 |
| 20260503015023 | 57 | 193 | 1.7 | 2.6 | 0.00 | 0.28 | 0.00 | 80 | 1013.6 |
| 20260503014532 | 57 | 192 | 1.7 | 2.6 | 0.00 | 0.28 | 0.00 | 80 | 1013.6 |
| 20260503014033 | 57 | 193 | 0.0 | 0.0 | 0.00 | 0.28 | 0.00 | 80 | 1013.5 |
| 20260503013521 | 57 | 193 | 0.0 | 0.0 | 0.00 | 0.28 | 0.00 | 80 | 1013.5 |
| 20260503013028 | 57 | 194 | 0.0 | 1.7 | 0.00 | 0.28 | 0.00 | 80 | 1013.5 |
| 20260503012535 | 58 | 193 | 0.9 | 1.7 | 0.00 | 0.28 | 0.00 | 80 | 1013.7 |
| 20260503012040 | 58 | 193 | 0.9 | 2.6 | 0.00 | 0.28 | 0.00 | 80 | 1013.7 |
| 20260503011529 | 58 | 193 | 0.9 | 2.6 | 0.00 | 0.28 | 0.00 | 80 | 1013.7 |
| 20260503011039 | 58 | 193 | 0.9 | 1.7 | 0.00 | 0.28 | 0.00 | 80 | 1013.7 |
| 20260503010025 | 58 | 193 | 0.9 | 1.7 | 0.00 | 0.28 | 0.00 | 80 | 1013.7 |
| 20260503005535 | 58 | 193 | 0.0 | 0.0 | 0.01 | 0.28 | 0.00 | 80 | 1013.7 |
| 20260503005039 | 58 | 193 | 0.0 | 0.9 | 0.02 | 0.28 | 0.00 | 80 | 1013.7 |
| 20260503004038 | 58 | 193 | 0.0 | 1.7 | 0.03 | 0.28 | 0.00 | 80 | 1013.9 |
| 20260503003524 | 58 | 193 | 0.9 | 2.6 | 0.03 | 0.28 | 0.00 | 80 | 1013.9 |
| 20260503003030 | 58 | 193 | 0.9 | 2.6 | 0.03 | 0.28 | 0.00 | 80 | 1013.9 |
| 20260503002539 | 58 | 193 | 1.7 | 2.6 | 0.03 | 0.28 | 0.00 | 80 | 1014.1 |
| 20260503001533 | 58 | 281 | 0.0 | 0.9 | 0.03 | 0.28 | 0.00 | 80 | 1014.1 |
| 20260503001021 | 58 | 281 | 0.0 | 1.7 | 0.03 | 0.28 | 0.00 | 80 | 1014.2 |
| 20260503000601 | 58 | 281 | 0.0 | 1.7 | 0.03 | 0.28 | 0.00 | 80 | 1014.2 |
| 20260503000023 | 58 | 281 | 0.0 | 0.9 | 0.03 | 0.28 | 0.00 | 80 | 1014.2 |
| 20260502235532 | 58 | 281 | 0.0 | 0.9 | 0.02 | 0.28 | 0.28 | 80 | 1014.3 |
| 20260502235033 | 58 | 281 | 0.0 | 0.9 | 0.02 | 0.27 | 0.27 | 80 | 1014.3 |
| 20260502234521 | 58 | 281 | 0.0 | 0.9 | 0.00 | 0.25 | 0.25 | 80 | 1014.3 |
| 20260502234026 | 58 | 281 | 0.0 | 1.7 | 0.00 | 0.25 | 0.25 | 80 | 1014.3 |
| 20260502233533 | 58 | 281 | 0.0 | 1.7 | 0.00 | 0.25 | 0.25 | 80 | 1014.3 |
| 20260502233038 | 58 | 281 | 0.9 | 1.7 | 0.00 | 0.25 | 0.25 | 80 | 1014.3 |
| 20260502232525 | 58 | 281 | 0.0 | 2.6 | 0.00 | 0.25 | 0.25 | 80 | 1014.3 |
| 20260502232034 | 58 | 281 | 1.7 | 2.6 | 0.00 | 0.25 | 0.25 | 80 | 1014.3 |
| 20260502231523 | 58 | 184 | 0.9 | 1.7 | 0.00 | 0.25 | 0.25 | 80 | 1014.3 |
| 20260502230551 | 58 | 184 | 0.9 | 2.6 | 0.00 | 0.25 | 0.25 | 80 | 1014.4 |
| 20260502225525 | 58 | 184 | 0.0 | 0.9 | 0.00 | 0.25 | 0.25 | 80 | 1014.4 |
| 20260502225032 | 58 | 184 | 0.0 | 1.7 | 0.00 | 0.25 | 0.25 | 80 | 1014.4 |
| 20260502224521 | 58 | 184 | 0.0 | 1.7 | 0.00 | 0.25 | 0.25 | 80 | 1014.4 |
| 20260502224027 | 58 | 182 | 0.9 | 1.7 | 0.00 | 0.25 | 0.25 | 80 | 1014.3 |
| 20260502223537 | 58 | 184 | 0.0 | 0.9 | 0.00 | 0.25 | 0.25 | 80 | 1014.3 |
| 20260502222533 | 58 | 184 | 0.0 | 1.7 | 0.00 | 0.25 | 0.25 | 80 | 1014.3 |
| 20260502222022 | 58 | 184 | 0.0 | 0.9 | 0.00 | 0.25 | 0.25 | 80 | 1014.3 |
| 20260502221040 | 58 | 184 | 0.0 | 0.0 | 0.00 | 0.25 | 0.25 | 80 | 1014.4 |
| 20260502220025 | 58 | 184 | 0.0 | 0.0 | 0.00 | 0.25 | 0.25 | 80 | 1014.4 |
| 20260502215532 | 58 | 184 | 0.0 | 0.0 | 0.00 | 0.25 | 0.25 | 80 | 1014.4 |
| 20260502215040 | 58 | 184 | 0.0 | 0.0 | 0.00 | 0.25 | 0.25 | 80 | 1014.4 |
| 20260502214529 | 58 | 184 | 0.0 | 0.0 | 0.00 | 0.25 | 0.25 | 80 | 1014.4 |
| 20260502214033 | 58 | 184 | 0.0 | 0.0 | 0.00 | 0.25 | 0.25 | 80 | 1014.6 |
| 20260502213520 | 58 | 184 | 0.0 | 0.0 | 0.00 | 0.25 | 0.25 | 80 | 1014.6 |
| 20260502213027 | 58 | 184 | 0.0 | 0.9 | 0.00 | 0.25 | 0.25 | 80 | 1014.6 |
| 20260502212539 | 58 | 184 | 0.0 | 2.6 | 0.00 | 0.25 | 0.25 | 80 | 1014.6 |
| 20260502212021 | 58 | 184 | 0.9 | 2.6 | 0.00 | 0.25 | 0.25 | 80 | 1014.6 |
| 20260502211529 | 58 | 217 | 0.9 | 2.6 | 0.00 | 0.25 | 0.25 | 80 | 1014.6 |
| 20260502211036 | 58 | 217 | 0.9 | 1.7 | 0.00 | 0.25 | 0.25 | 80 | 1014.5 |
| 20260502210557 | 58 | 217 | 0.9 | 1.7 | 0.00 | 0.25 | 0.25 | 80 | 1014.5 |
| 20260502210021 | 58 | 217 | 0.9 | 1.7 | 0.00 | 0.25 | 0.25 | 80 | 1014.5 |
| 20260502205530 | 58 | 217 | 0.0 | 1.7 | 0.00 | 0.25 | 0.25 | 80 | 1014.5 |
| 20260502205034 | 58 | 217 | 0.0 | 2.6 | 0.00 | 0.25 | 0.25 | 80 | 1014.5 |
| 20260502204029 | 59 | 216 | 0.9 | 3.5 | 0.00 | 0.25 | 0.25 | 80 | 1014.3 |
| 20260502203523 | 59 | 224 | 0.9 | 2.6 | 0.00 | 0.25 | 0.25 | 80 | 1014.3 |
| 20260502203030 | 59 | 234 | 0.0 | 2.6 | 0.00 | 0.25 | 0.25 | 80 | 1014.3 |
| 20260502202539 | 59 | 234 | 0.0 | 2.6 | 0.00 | 0.25 | 0.25 | 80 | 1014.4 |
| 20260502202025 | 59 | 234 | 0.9 | 2.6 | 0.00 | 0.25 | 0.25 | 80 | 1014.4 |
| 20260502201533 | 59 | 234 | 0.0 | 2.6 | 0.00 | 0.25 | 0.25 | 80 | 1014.4 |
| 20260502201038 | 59 | 234 | 1.7 | 2.6 | 0.00 | 0.25 | 0.25 | 80 | 1014.4 |
| 20260502200026 | 59 | 233 | 0.9 | 4.3 | 0.00 | 0.25 | 0.25 | 80 | 1014.4 |
| 20260502195535 | 59 | 224 | 1.7 | 4.3 | 0.00 | 0.25 | 0.25 | 80 | 1014.4 |
| 20260502195022 | 59 | 219 | 1.7 | 4.3 | 0.00 | 0.25 | 0.25 | 80 | 1014.4 |
| 20260502194532 | 59 | 231 | 0.9 | 2.6 | 0.00 | 0.25 | 0.25 | 80 | 1014.4 |
| 20260502194039 | 60 | 238 | 0.9 | 2.6 | 0.00 | 0.25 | 0.25 | 80 | 1014.3 |
| 20260502193527 | 60 | 236 | 0.0 | 2.6 | 0.00 | 0.25 | 0.25 | 80 | 1014.3 |
| 20260502193033 | 60 | 242 | 0.9 | 2.6 | 0.00 | 0.25 | 0.25 | 80 | 1014.3 |
| 20260502192522 | 60 | 256 | 1.7 | 3.5 | 0.00 | 0.25 | 0.25 | 80 | 1014.2 |
| 20260502192029 | 60 | 264 | 1.7 | 3.5 | 0.00 | 0.25 | 0.25 | 80 | 1014.2 |
| 20260502191026 | 60 | 212 | 0.9 | 3.5 | 0.00 | 0.25 | 0.25 | 80 | 1014.2 |
| 20260502190549 | 60 | 222 | 0.9 | 3.5 | 0.00 | 0.25 | 0.25 | 80 | 1014.2 |
| 20260502190034 | 61 | 244 | 1.7 | 3.5 | 0.00 | 0.25 | 0.25 | 80 | 1014.2 |
| 20260502185522 | 61 | 267 | 1.7 | 3.5 | 0.00 | 0.25 | 0.25 | 80 | 1014.2 |
| 20260502185032 | 61 | 260 | 0.9 | 3.5 | 0.00 | 0.25 | 0.25 | 80 | 1014.2 |
| 20260502184521 | 61 | 261 | 0.0 | 3.5 | 0.00 | 0.25 | 0.25 | 80 | 1014.2 |
| 20260502184026 | 61 | 255 | 0.0 | 4.3 | 0.00 | 0.25 | 0.25 | 80 | 1014.2 |
| 20260502183020 | 61 | 205 | 1.7 | 4.3 | 0.00 | 0.25 | 0.25 | 80 | 1014.2 |
| 20260502182530 | 61 | 224 | 0.9 | 7.8 | 0.01 | 0.25 | 0.25 | 80 | 1014.1 |
| 20260502182034 | 61 | 237 | 0.9 | 7.8 | 0.01 | 0.25 | 0.25 | 80 | 1014.1 |
| 20260502181521 | 61 | 265 | 1.7 | 5.2 | 0.01 | 0.25 | 0.25 | 80 | 1014.1 |
| 20260502181026 | 61 | 255 | 1.7 | 4.3 | 0.01 | 0.25 | 0.25 | 80 | 1013.8 |
| 20260502180547 | 61 | 239 | 0.9 | 4.3 | 0.01 | 0.25 | 0.25 | 80 | 1013.8 |
| 20260502164030 | 61 | 54 | 4.3 | 6.1 | 0.13 | 0.24 | 0.24 | 80 | 1013.9 |
| 20260502163521 | 61 | 20 | 4.3 | 7.8 | 0.13 | 0.23 | 0.23 | 80 | 1013.9 |
| 20260502163027 | 61 | 332 | 4.3 | 8.7 | 0.13 | 0.23 | 0.23 | 80 | 1013.9 |
| 20260502162537 | 61 | 359 | 5.2 | 8.7 | 0.13 | 0.23 | 0.23 | 80 | 1014.3 |
| 20260502161533 | 61 | 332 | 2.6 | 7.0 | 0.14 | 0.22 | 0.22 | 80 | 1014.3 |
| 20260502160602 | 62 | 290 | 0.9 | 7.8 | 0.12 | 0.20 | 0.20 | 80 | 1014.8 |
| 20260502151535 | 63 | 293 | 3.5 | 8.7 | 0.00 | 0.08 | 0.08 | 80 | 1014.3 |
| 20260502151039 | 63 | 316 | 1.7 | 8.7 | 0.00 | 0.08 | 0.08 | 80 | 1014.3 |
| 20260502150544 | 63 | 260 | 3.5 | 8.7 | 0.00 | 0.08 | 0.08 | 80 | 1014.3 |
| 20260502130547 | 63 | 59 | 4.3 | 6.1 | 0.01 | 0.08 | 0.08 | 80 | 1014.2 |
| 20260502123533 | 62 | 70 | 8.7 | 13.9 | 0.00 | 0.07 | 0.07 | 80 | 1015.3 |
| 20260502123020 | 62 | 108 | 7.0 | 12.2 | 0.00 | 0.07 | 0.07 | 80 | 1015.3 |
| 20260502122529 | 63 | 110 | 8.7 | 11.3 | 0.00 | 0.07 | 0.07 | 80 | 1015.7 |
| 20260502121525 | 63 | 98 | 8.7 | 13.0 | 0.00 | 0.07 | 0.07 | 80 | 1015.7 |
| 20260502121031 | 63 | 117 | 5.2 | 13.0 | 0.00 | 0.07 | 0.07 | 80 | 1015.1 |
| 20260502115528 | 64 | 62 | 9.6 | 13.9 | 0.00 | 0.07 | 0.07 | 80 | 1014.9 |
| 20260502114523 | 65 | 77 | 6.1 | 8.7 | 0.00 | 0.07 | 0.07 | 80 | 1014.9 |
| 20260502114027 | 65 | 79 | 3.5 | 7.0 | 0.00 | 0.07 | 0.07 | 80 | 1015.3 |
| 20260502113026 | 64 | 55 | 6.1 | 8.7 | 0.00 | 0.07 | 0.07 | 80 | 1015.3 |
| 20260502112539 | 64 | 12 | 3.5 | 7.0 | 0.00 | 0.07 | 0.07 | 80 | 1015.8 |
| 20260502112026 | 64 | 23 | 2.6 | 7.8 | 0.00 | 0.07 | 0.07 | 80 | 1015.8 |
| 20260502111038 | 63 | 2 | 5.2 | 8.7 | 0.00 | 0.07 | 0.07 | 80 | 1016.0 |
| 20260502110600 | 63 | 334 | 3.5 | 7.8 | 0.00 | 0.07 | 0.07 | 80 | 1016.0 |
| 20260502110038 | 62 | 359 | 3.5 | 8.7 | 0.00 | 0.07 | 0.07 | 80 | 1016.0 |
| 20260502105527 | 62 | 333 | 6.1 | 9.6 | 0.00 | 0.07 | 0.07 | 80 | 1016.4 |
| 20260502105033 | 62 | 326 | 5.2 | 9.6 | 0.00 | 0.07 | 0.07 | 80 | 1016.4 |
| 20260502104031 | 63 | 311 | 5.2 | 8.7 | 0.00 | 0.07 | 0.07 | 80 | 1016.6 |
| 20260502103540 | 63 | 289 | 2.6 | 6.1 | 0.00 | 0.07 | 0.07 | 80 | 1016.6 |
| 20260502103030 | 63 | 302 | 1.7 | 5.2 | 0.00 | 0.07 | 0.07 | 80 | 1016.6 |
| 20260502102537 | 63 | 79 | 0.9 | 5.2 | 0.00 | 0.07 | 0.07 | 80 | 1016.2 |
| 20260502102023 | 63 | 101 | 3.5 | 5.2 | 0.00 | 0.07 | 0.07 | 80 | 1016.2 |
| 20260502101532 | 63 | 95 | 3.5 | 6.1 | 0.00 | 0.07 | 0.07 | 80 | 1016.2 |
| 20260502101039 | 63 | 91 | 3.5 | 6.1 | 0.00 | 0.07 | 0.07 | 80 | 1016.1 |
| 20260502091524 | 61 | 51 | 0.0 | 2.6 | 0.04 | 0.07 | 0.07 | 80 | 1016.4 |
| 20260502090553 | 61 | 51 | 0.0 | 6.1 | 0.05 | 0.07 | 0.07 | 80 | 1016.0 |